Weather in Parusnoye

Russia / Kaliningrad Oblast     54°46′23″N   20°01′21″E
temp.,
°C
wind,
m/s
gust,
m/s
humid.,
%
clouds,
%
prec.,
mm/h
press.,
hPa
HPBL,
m
22 january, fri
fri2223:00+4ssw9148497 0.0 999413
02:00+4ssw8138699 0.0 999373
05:00+3ssw81387100 0.0 998441
08:00+4s81486100 0.0 997366
11:00+5s81783100 0.0 996461
14:00+5s81584100 0.0 994528
17:00+4s71389100 0.0 993399
20:00+3ssw7119177 0.0 994348
23 january, sat
sat2323:00+4sw6109196 0.1 995379
02:00+3wsw349398 0.1 998105
05:00+2sw229387 0.0 99938
08:00+2se339484 0.0 99980
11:00+2e479199 0.0 999277
14:00+3e599199 0.0 998322
17:00+3ese81396100 3.3 994500
20:00+3se71296100 6.4 992397
24 january, sun
sun2423:00+4se81491100 0.0 990431
02:00+3s9138680 0.0 991581
05:00+3s9128795 0.1 991598
08:00+3ssw8118996 0.1 992470
11:00+3ssw7109399 0.0 993455
14:00+4w7991100 0.2 993570
17:00+3w6891100 0.1 994481
20:00+3w81089100 0.3 994598
25 january, mon
mon2523:00+3w71085100 0.1 994655
02:00+2w81192100 0.2 995616
05:00+2w81193100 0.6 995697
08:00+3w71077100 0.9 997722
11:00+3wsw798253 0.1 999842
14:00+2sw688461 0.1 1000648
17:00+2wsw687996 0.1 1002724
20:00+2wsw798298 0.3 1003722
26 january, tue
tue2623:00+1wsw688192 0.1 1003519
02:00+1w468494 0.1 1003441
05:00+2wnw4682100 0.1 1003494
08:00+2nw61071100 0.1 1004655
11:00+2nw7872100 0.0 1004826
14:00+2nw71072100 0.0 10041102
17:00+2nw71073100 0.1 1004904
20:00+2nw71076100 0.3 1004758